DELTA 1 DEB *, 9703

Orbit data source: Space-Track

DELTA 1 DEB *, 9703 is space debris in LEO originally from a launch on Tue, 06 Nov 1973 UTC launched from the Air Force Western Test Range (AFWTR). Debris objects in space refer to the collection of defunct objects orbiting the Earth. Examples of debris include non-operational satellites, rocket bodies, and fragments generated from explosions, collisions, or faulty payload assembly.

Loading next visibility...
Identifier
9703, 1973-086GB
Orbit
LEO
Country
Flag of USUS
Related business
Manufacturer
Unknown
Mission
Spacecraft
Bus & Motor
Unknown
Mass
Unknown
Launch date (UTC)
1973-11-06 (53 years ago)
Launch vehicle
Unknown
Launch site
Air Force Western Test Range (AFWTR)
Object type
Payload
Rocket body
Debris
Shape & HBR
Unknown shape, 0.1 m
Radar Cross Section
Medium (>0.1 m² and <1 m²)

Expand to show TLE details & history
Last TLE update: 1 day ago

TLE from 1 day ago
0 DELTA 1 DEB *
1 09703U 73086GB  26206.34016264  .00000106  00000-0  20604-3 0  9997
2 09703  65.7191 210.0210 0134619 225.7740 243.0097 13.67790004589225
Epoch: 2026-07-25T08:09Z
TLE epoch observation values (Epoch: 2026-07-25T08:09:50.052Z)
Latitude
60.54308°
Longitude
-88.11286°
Altitude
1,063.096 km
Speed
7.304 km/s
True Right ascension
22h 29m 35s
True Declination
60° 24' 06"
Sunlit
Object was in daylight at epoch
Visualization orbit readout
Latitude
Unknown
Longitude
Unknown
Altitude
Unknown
Speed
Unknown
Apparent Right ascension
Unknown
Apparent Declination
Unknown
Sunlit
N/A
Visualization observer readout
Local Sidereal Time
21:19:19
Azimuth
Unknown
Elevation
Unknown
Doppler factor
Unknown
Orbital elements
Apogee altitude
1,105.456 km
Perigee altitude
906.646 km
Semi-major axis
7,384.188 km
Eccentricity
0.01346
Inclination
65.7191°
RAAN
210.021°
Arg. of periapsis
225.774°
True anomaly
241.64565°
Mean anomaly
243.0097°
Eccentric anomaly
242.32662°
Mean motion
3.4205 °/min
Orbital period
105.25 mins
BSTAR
0.00020604
Loading maneuver chart data...
Computing Atmospheric mass density...
Loading historical data...
Loading historical data...
Loading historical data...
Loading historical data...
Loading historical data...
Loading historical data...
Loading historical data...

Documentation

Showing up to 5 results
|